Lid_Strength_Index
5 5 5 5 5 5 4 4 4 4 4 4 3 3 3 3 4 9 10 7 4 1 2 9 10 12 12 13 13 14 17 20 19 18 17 14 14 12 11 12 10 9 9 8 6
4 4 4 5 5 5 5 5 5 4 4 4 4 3 3 3 9 11 7 3 2 2 8 11 12 12 14 14 13 16 18 18 15 15 15 14 13 13 12 12 11 10 8 7 7
5 5 4 5 5 5 5 5 5 5 4 4 4 3 3 5 12 12 4 3 2 4 8 10 12 13 14 14 14 14 17 14 13 12 12 13 13 11 12 13 12 11 9 8 7
5 5 5 5 5 5 5 5 5 5 4 4 4 4 3 9 16 10 4 4 3 8 9 12 13 14 15 15 13 14 13 12 11 11 12 13 12 13 12 12 9 9 8 8 8
5 5 5 5 5 6 6 5 5 5 4 4 4 3 8 13 13 9 5 6 8 9 11 13 14 14 16 15 14 14 13 12 11 11 12 11 12 12 12 10 9 9 8 8 8
5 5 5 5 6 6 6 6 5 5 5 5 4 4 11 15 9 9 9 7 8 10 11 11 13 12 14 14 14 13 13 12 11 11 11 12 12 11 12 9 10 9 8 8 8
5 5 6 6 6 6 6 6 6 5 5 5 5 8 12 14 10 10 9 8 8 9 11 10 10 12 12 14 12 13 14 13 12 12 12 11 13 13 11 10 11 10 9 9 8
4 5 6 6 6 6 6 6 6 6 5 5 5 11 15 9 10 9 9 9 8 8 9 9 9 11 12 12 13 14 15 17 13 12 11 13 16 12 11 11 12 11 10 9 8
4 5 6 6 6 7 6 6 6 6 6 5 11 13 15 8 11 10 9 10 9 9 8 8 10 12 12 15 18 18 20 18 16 12 12 13 15 12 11 12 13 12 10 9 9
4 5 5 6 6 6 6 6 7 9 10 11 11 14 13 14 11 10 10 9 10 11 11 12 15 17 16 17 22 20 20 18 18 14 13 14 14 12 11 12 13 13 11 11 10
4 4 5 6 6 6 9 14 15 15 13 16 15 14 13 11 10 11 10 10 11 12 15 15 18 20 19 17 17 19 20 20 17 13 15 15 15 13 11 13 13 13 13 12 12
4 4 5 6 6 7 11 16 16 14 17 14 13 13 12 12 13 12 10 13 14 16 16 18 19 16 14 15 15 17 19 21 17 15 15 17 15 13 12 13 13 13 13 13 12
4 4 4 5 6 10 14 14 12 12 16 16 14 14 13 12 14 14 11 13 15 16 17 19 16 13 14 16 16 16 17 18 18 16 15 16 17 16 12 12 12 13 13 13 13
4 4 5 5 10 12 14 12 11 12 19 17 17 15 13 13 16 12 12 13 15 17 17 17 14 14 15 16 16 17 15 16 16 17 20 17 23 19 15 13 12 13 14 14 13
4 4 4 7 13 12 12 10 11 11 23 17 17 13 13 15 15 14 12 14 16 16 18 18 16 15 16 16 16 16 15 16 16 17 19 20 20 19 16 15 13 14 14 14 14
4 4 4 8 10 10 10 11 12 18 22 20 17 16 16 16 16 15 14 13 14 17 16 17 14 15 16 15 15 14 16 16 18 18 23 21 21 21 18 15 15 14 14 14 14
3 4 6 9 13 10 11 13 18 21 18 21 19 17 18 18 17 17 17 18 20 22 22 17 17 15 15 16 15 16 18 22 23 24 23 20 21 19 17 13 13 14 15 14 15
4 4 7 10 10 10 12 17 24 21 21 19 18 18 19 18 18 18 18 20 18 20 23 22 22 17 15 16 17 18 19 22 24 24 22 20 21 18 16 13 13 14 15 14 15
4 8 9 10 10 11 15 22 21 19 18 18 18 21 21 19 18 18 20 20 18 18 21 20 20 16 15 15 16 18 20 18 21 26 23 21 19 18 15 15 15 15 15 15 15
7 10 11 9 9 12 20 20 18 18 17 18 20 20 24 21 20 20 20 19 18 17 17 18 20 17 16 15 15 17 16 20 20 25 25 22 21 20 18 15 14 15 15 15 16
8 12 11 9 10 16 23 23 20 17 16 18 20 22 20 21 21 21 20 19 18 17 17 18 18 19 17 18 18 17 19 19 19 20 22 23 20 18 18 17 15 14 14 15 15
9 15 11 10 17 24 24 21 17 18 17 18 18 19 20 20 21 21 20 19 17 16 17 16 18 22 20 18 17 17 18 18 20 21 22 21 20 18 18 16 15 15 13 14 15
14 16 11 12 19 26 24 22 19 18 18 18 19 18 19 20 21 20 20 18 16 16 17 16 20 25 21 19 18 18 17 17 19 19 21 22 19 16 16 16 15 15 14 14 15
14 18 16 14 18 21 23 22 20 18 18 18 18 18 19 20 21 21 20 18 16 16 13 14 18 19 20 19 19 19 18 18 18 22 21 20 19 17 17 16 16 14 14 14 15
14 16 15 18 18 20 19 19 20 21 18 18 19 18 18 21 21 22 20 19 17 14 16 17 21 21 19 19 19 18 18 18 19 19 19 18 19 17 16 16 16 15 14 14 15
14 16 16 17 16 18 17 20 18 19 19 20 19 18 18 19 18 20 19 19 18 18 17 18 24 25 25 21 20 20 18 18 18 18 19 19 18 16 15 16 17 15 15 14 14
11 12 12 14 16 17 19 18 18 17 18 17 17 18 19 18 17 18 19 18 17 18 20 21 24 23 23 26 23 21 20 18 18 18 17 18 16 16 16 16 15 15 15 15 14